Time,TemperatureF,DewpointF,PressureIn,WindDirection,WindDirectionDegrees,WindSpeedMPH,WindSpeedGustMPH,Humidity,HourlyPrecipIn,Conditions,Clouds,dailyrainin,SoftwareType,DateUTC
2013-05-28 00:00:00,58.5,33.0,30.35,WNW,292,0.0,0.0,38,0.00,,SKC,0.00,VWS V14.01,2013-05-28 04:00:00,
2013-05-28 00:20:00,58.1,33.3,30.35,WNW,292,0.0,0.0,39,0.00,,SKC,0.00,VWS V14.01,2013-05-28 04:20:00,
2013-05-28 00:40:00,57.9,34.4,30.32,WNW,292,0.0,0.0,41,0.00,,SKC,0.00,VWS V14.01,2013-05-28 04:40:00,
2013-05-28 01:00:00,57.9,35.0,30.35,WNW,292,0.0,0.0,42,0.00,,SKC,0.00,VWS V14.01,2013-05-28 05:00:00,
2013-05-28 01:20:00,58.1,36.9,30.35,WNW,292,0.0,0.0,45,0.00,,SKC,0.00,VWS V14.01,2013-05-28 05:20:00,
2013-05-28 01:40:00,58.6,37.4,30.35,NW,305,0.0,0.0,45,0.00,,SKC,0.00,VWS V14.01,2013-05-28 05:40:00,
2013-05-28 02:00:00,57.7,36.0,30.35,NW,305,0.0,0.0,44,0.00,,SKC,0.00,VWS V14.01,2013-05-28 06:00:00,
2013-05-28 02:20:00,56.5,35.4,30.32,NW,305,0.0,0.0,45,0.00,,SKC,0.00,VWS V14.01,2013-05-28 06:20:00,
2013-05-28 02:40:00,56.3,36.3,30.32,NW,305,0.0,0.0,47,0.00,,SKC,0.00,VWS V14.01,2013-05-28 06:40:00,
2013-05-28 03:00:00,56.8,38.4,30.32,NNW,343,0.0,0.0,50,0.00,,SKC,0.00,VWS V14.01,2013-05-28 07:00:00,
2013-05-28 03:20:00,57.2,40.2,30.32,North,0,0.0,0.0,53,0.00,,SKC,0.00,VWS V14.01,2013-05-28 07:20:00,
2013-05-28 03:40:00,58.1,43.0,30.32,NW,318,0.0,0.0,57,0.00,,SKC,0.00,VWS V14.01,2013-05-28 07:40:00,
2013-05-28 04:00:00,58.5,42.8,30.32,NW,318,0.0,0.0,56,0.00,,SKC,0.00,VWS V14.01,2013-05-28 08:00:00,
2013-05-28 04:20:00,56.7,39.2,30.29,NW,318,0.0,0.0,52,0.00,,SKC,0.00,VWS V14.01,2013-05-28 08:20:00,
2013-05-28 04:40:00,56.3,40.4,30.29,NW,320,0.0,5.4,55,0.00,,SKC,0.00,VWS V14.01,2013-05-28 08:40:00,
2013-05-28 05:00:00,56.5,41.5,30.29,NW,320,0.0,0.0,57,0.00,,SKC,0.00,VWS V14.01,2013-05-28 09:00:00,
2013-05-28 05:20:00,55.8,40.3,30.29,NW,320,0.0,0.0,56,0.00,,SKC,0.00,VWS V14.01,2013-05-28 09:20:00,
2013-05-28 05:40:00,54.0,38.6,30.32,NW,320,0.0,0.0,56,0.00,,SKC,0.00,VWS V14.01,2013-05-28 09:40:00,
2013-05-28 06:00:00,53.8,40.7,30.32,NW,320,0.0,0.0,61,0.00,,SKC,0.00,VWS V14.01,2013-05-28 10:00:00,
2013-05-28 06:20:00,53.6,40.9,30.32,NW,320,0.0,0.0,62,0.00,,SKC,0.00,VWS V14.01,2013-05-28 10:20:00,
2013-05-28 06:40:00,53.2,41.8,30.32,NW,320,0.0,0.0,65,0.00,,SKC,0.00,VWS V14.01,2013-05-28 10:40:00,
2013-05-28 07:00:00,53.4,43.5,30.32,NW,320,0.0,0.0,69,0.00,,SKC,0.00,VWS V14.01,2013-05-28 11:00:00,
2013-05-28 07:20:00,55.2,46.4,30.32,NW,320,0.0,0.0,72,0.00,,SKC,0.00,VWS V14.01,2013-05-28 11:20:00,
2013-05-28 07:40:00,56.3,47.8,30.35,NW,320,0.0,0.0,73,0.00,,SKC,0.00,VWS V14.01,2013-05-28 11:40:00,
2013-05-28 08:00:00,58.1,50.2,30.35,NW,320,0.0,0.0,75,0.00,,SKC,0.00,VWS V14.01,2013-05-28 12:00:00,
2013-05-28 08:20:00,61.7,55.1,30.35,NW,320,0.0,0.0,79,0.00,,SKC,0.00,VWS V14.01,2013-05-28 12:20:00,
2013-05-28 08:40:00,63.5,56.5,30.35,NW,320,0.0,0.0,78,0.00,,SKC,0.00,VWS V14.01,2013-05-28 12:40:00,
2013-05-28 09:00:00,66.4,57.8,30.35,NW,320,0.0,0.0,74,0.00,,SKC,0.00,VWS V14.01,2013-05-28 13:00:00,
2013-05-28 09:20:00,67.6,54.6,30.35,NW,320,0.0,0.0,63,0.00,,SKC,0.00,VWS V14.01,2013-05-28 13:20:00,
2013-05-28 09:40:00,67.8,47.4,30.35,NW,320,0.0,0.0,48,0.00,,SKC,0.00,VWS V14.01,2013-05-28 13:40:00,
2013-05-28 10:00:00,68.7,43.5,30.35,NW,320,0.0,0.0,40,0.00,,SKC,0.00,VWS V14.01,2013-05-28 14:00:00,
2013-05-28 10:20:00,71.4,40.0,30.35,WNW,294,0.0,0.0,32,0.00,,SKC,0.00,VWS V14.01,2013-05-28 14:20:00,
2013-05-28 10:40:00,72.1,31.2,30.35,NW,312,0.0,2.7,22,0.00,,SKC,0.00,VWS V14.01,2013-05-28 14:40:00,
2013-05-28 11:00:00,73.4,31.1,30.35,NW,307,0.0,3.1,21,0.00,,SKC,0.00,VWS V14.01,2013-05-28 15:00:00,
2013-05-28 11:20:00,73.4,24.5,30.35,NNW,338,0.0,3.1,16,0.00,,SKC,0.00,VWS V14.01,2013-05-28 15:20:00,
2013-05-28 11:40:00,72.1,30.1,30.35,East,92,7.6,8.1,21,0.00,,SKC,0.00,VWS V14.01,2013-05-28 15:40:00,
2013-05-28 12:00:00,71.8,30.9,30.35,ESE,109,3.6,7.6,22,0.00,,SKC,0.00,VWS V14.01,2013-05-28 16:00:00,
2013-05-28 12:20:00,72.1,30.1,30.35,East,79,4.0,7.6,21,0.00,,SKC,0.00,VWS V14.01,2013-05-28 16:20:00,
2013-05-28 12:40:00,72.9,30.7,30.35,East,98,5.4,7.2,21,0.00,,SKC,0.00,VWS V14.01,2013-05-28 16:40:00,
2013-05-28 13:00:00,72.5,30.4,30.35,SW,236,3.6,8.7,21,0.00,,SKC,0.00,VWS V14.01,2013-05-28 17:00:00,
2013-05-28 13:20:00,72.5,27.9,30.35,SW,224,3.1,5.8,19,0.00,,SKC,0.00,VWS V14.01,2013-05-28 17:20:00,
2013-05-28 13:40:00,72.5,30.4,30.35,ESE,102,4.5,5.8,21,0.00,,SKC,0.00,VWS V14.01,2013-05-28 17:40:00,
2013-05-28 14:00:00,73.2,28.5,30.35,ESE,111,3.6,5.4,19,0.00,,SKC,0.00,VWS V14.01,2013-05-28 18:00:00,
2013-05-28 14:20:00,73.8,27.6,30.35,East,99,0.0,7.2,18,0.00,,SKC,0.00,VWS V14.01,2013-05-28 18:20:00,
2013-05-28 14:40:00,75.4,24.6,30.35,East,84,0.0,6.3,15,0.00,,SKC,0.00,VWS V14.01,2013-05-28 18:40:00,
2013-05-28 15:00:00,74.5,25.4,30.32,ESE,109,0.0,6.7,16,0.00,,SKC,0.00,VWS V14.01,2013-05-28 19:00:00,
2013-05-28 15:20:00,73.2,24.4,30.35,ESE,118,0.0,5.8,16,0.00,,SKC,0.00,VWS V14.01,2013-05-28 19:20:00,
2013-05-28 15:40:00,72.7,23.9,30.35,NE,43,0.0,4.9,16,0.00,,SKC,0.00,VWS V14.01,2013-05-28 19:40:00,
2013-05-28 16:00:00,74.3,28.1,30.35,North,5,4.0,5.4,18,0.00,,SKC,0.00,VWS V14.01,2013-05-28 20:00:00,
2013-05-28 16:20:00,73.0,24.2,30.35,NNW,345,3.1,5.8,16,0.00,,SKC,0.00,VWS V14.01,2013-05-28 20:20:00,
2013-05-28 16:40:00,73.8,24.8,30.35,SSE,150,0.0,8.7,16,0.00,,SKC,0.00,VWS V14.01,2013-05-28 20:40:00,
2013-05-28 17:00:00,72.9,24.1,30.35,SE,136,0.0,0.0,16,0.00,,SKC,0.00,VWS V14.01,2013-05-28 21:00:00,
2013-05-28 17:20:00,72.1,27.6,30.35,WSW,255,4.0,4.0,19,0.00,,SKC,0.00,VWS V14.01,2013-05-28 21:20:00,
2013-05-28 17:40:00,72.9,24.1,30.35,ESE,104,0.0,4.0,16,0.00,,SKC,0.00,VWS V14.01,2013-05-28 21:40:00,
2013-05-28 18:00:00,72.1,27.6,30.35,East,93,4.0,4.0,19,0.00,,SKC,0.00,VWS V14.01,2013-05-28 22:00:00,
2013-05-28 18:20:00,71.1,26.8,30.35,ENE,68,2.7,4.9,19,0.00,,SKC,0.00,VWS V14.01,2013-05-28 22:20:00,
2013-05-28 18:40:00,70.2,26.0,30.35,WSW,253,2.2,3.6,19,0.00,,SKC,0.00,VWS V14.01,2013-05-28 22:40:00,
2013-05-28 19:00:00,70.5,26.3,30.35,ENE,69,0.0,3.1,19,0.00,,SKC,0.00,VWS V14.01,2013-05-28 23:00:00,
2013-05-28 19:20:00,70.0,29.4,30.35,East,82,0.0,5.4,22,0.00,,SKC,0.00,VWS V14.01,2013-05-28 23:20:00,
2013-05-28 19:40:00,68.5,29.3,30.35,ENE,78,0.0,5.4,23,0.00,,SKC,0.00,VWS V14.01,2013-05-28 23:40:00,
2013-05-28 20:00:00,67.8,29.7,30.35,WNW,284,0.0,5.4,24,0.00,,SKC,0.00,VWS V14.01,2013-05-29 00:00:00,
2013-05-28 20:20:00,67.3,29.3,30.35,North,0,0.0,2.7,24,0.00,,SKC,0.00,VWS V14.01,2013-05-29 00:20:00,
2013-05-28 20:40:00,66.4,29.5,30.35,WNW,302,0.0,0.0,25,0.00,,SKC,0.00,VWS V14.01,2013-05-29 00:40:00,
2013-05-28 21:00:00,65.5,30.6,30.35,NE,48,0.0,0.0,27,0.00,,SKC,0.00,VWS V14.01,2013-05-29 01:00:00,
2013-05-28 21:20:00,64.9,32.0,30.35,NW,316,0.0,4.0,29,0.00,,SKC,0.00,VWS V14.01,2013-05-29 01:20:00,
2013-05-28 21:40:00,64.6,34.1,30.35,NNW,336,0.0,2.7,32,0.00,,SKC,0.00,VWS V14.01,2013-05-29 01:40:00,
2013-05-28 22:00:00,64.4,34.7,30.35,NNW,341,0.0,4.0,33,0.00,,SKC,0.00,VWS V14.01,2013-05-29 02:00:00,
2013-05-28 22:20:00,64.9,35.9,30.35,NNW,344,0.0,4.0,34,0.00,,SKC,0.00,VWS V14.01,2013-05-29 02:20:00,
2013-05-28 22:40:00,64.4,34.7,30.35,ENE,65,0.0,3.6,33,0.00,,SKC,0.00,VWS V14.01,2013-05-29 02:40:00,
2013-05-28 23:00:00,64.2,36.0,30.35,NNW,341,0.0,0.0,35,0.00,,SKC,0.00,VWS V14.01,2013-05-29 03:00:00,
2013-05-28 23:20:00,64.0,35.9,30.35,WNW,290,0.0,0.0,35,0.00,,SKC,0.00,VWS V14.01,2013-05-29 03:20:00,
2013-05-28 23:40:00,63.7,36.2,30.35,NW,311,0.0,0.0,36,0.00,,SKC,0.00,VWS V14.01,2013-05-29 03:40:00,